Regional Weather Roundup
Issued by NWS

Home | Current Version | Previous Version | Text Only | Print | Product List | Glossary Off
Versions: 1 2 3 4 5 6 7 8 9 10 11 12 13 14 15 16 17 18 19 20 21 22 23 24 25 26 27 28 29 30 31 32 33 34 35 36 37 38 39 40 41 42 43 44 45 46 47 48 49 50

000
ASUS45 KCYS 280110
RWRWY

WYOMING REGIONAL WEATHER ROUNDUP
NATIONAL WEATHER SERVICE CHEYENNE WY
600 PM MST FRI FEB 27 2015

NOTE:  "FAIR" INDICATES FEW OR NO CLOUDS BELOW 12,000 FEET
WITH NO SIGNIFICANT WEATHER AND/OR OBSTRUCTIONS TO VISIBILITY.

WYZ001-280200-
YELLOWSTONE NATIONAL PARK

CITY           SKY/WX    TMP DP  RH WIND       PRES   REMARKS
LK YELLOWSTONE   N/A     18  10  71 CALM      29.71R
W YELLOWSTONE  NOT AVBL

$$
WYZ002>013-054>058-071-098>099-280200-
NORTHERN WYOMING

CITY           SKY/WX    TMP DP  RH WIND       PRES   REMARKS
JACKSON        MOCLDY    19  18  93 CALM      29.71S
CODY           FAIR      21  10  63 N5        29.85R WCI  15
GREYBULL       CLOUDY    27   6  41 CALM      29.89R
WORLAND        MOCLDY    25  12  58 NE3       29.87R
SHERIDAN       FAIR      11   2  67 W7        29.92R WCI   0
BUFFALO        FAIR      16   3  56 NW6       29.85R WCI   7
GILLETTE       FAIR      19   9  65 S5        29.88R WCI  12
HULETT         FAIR      19   9  63 S7        29.91S WCI  10
NEWCASTLE      FAIR      19   9  63 SE10      29.94R WCI   8

$$
WYZ014>020-022>026-101>103-280200-
CENTRAL WYOMING

CITY           SKY/WX    TMP DP  RH WIND       PRES   REMARKS
BIG PINEY      CLOUDY    21  13  71 NE9       29.72S WCI  11
PINEDALE       CLOUDY    12   9  85 W6        29.73S WCI   3
DUBOIS         CLOUDY    12   9  85 S7        29.71R WCI   2
LANDER         FAIR       9   2  73 SW10      29.81R WCI  -5
RIVERTON       FAIR      11   4  73 S5        29.82R WCI   3
CASPER         FAIR      24  11  57 CALM      29.80R
DOUGLAS        FAIR      20  10  65 SE10      29.84S WCI   9

$$
WYZ021-027>030-104>119-280200-
SOUTHERN WYOMING

CITY           SKY/WX    TMP DP  RH WIND       PRES   REMARKS
EVANSTON       MOCLDY    29  18  63 SW5       29.68R WCI  24
KEMMERER       CLOUDY    27  19  74 SE3       29.69S
FORT BRIDGER   CLOUDY    27  22  82 S8        29.72S WCI  19
ROCK SPRINGS   MOCLDY    26  15  63 S3        29.71R
DIXON          FAIR      29  12  48 W3        29.76S
RAWLINS        FAIR      25   6  44 W6        29.72S WCI  18
SARATOGA       FAIR      23  12  63 SW5       29.73F WCI  17
LARAMIE        FAIR      10   3  73 S10       29.74R WCI  -4
CHEYENNE       CLOUDY    11   4  73 S15       29.84S WCI  -5
TORRINGTON     FAIR      18   7  62 SE16      29.94S WCI   3
PINE BLUFFS    CLOUDY    14   7  73 S15       29.93S WCI  -1

$$


USA.gov is the U.S. government's official web portal to all federal, state and local government web resources and services.